SP9WPN-12 Weather Reports


time (UTC)temp
C
wind
direction
speed
KPH
gust
KPH
rain 1hr
cm
rain 24hr
cm
rain mn
cm
humidity
%
barometer
mb
20260508044406 9 0.0 0.0 0.00 0.00 0.00 100 1018.8
20260508043408 9 0.0 0.0 0.00 0.00 0.00 100 1018.7
20260508042410 10 0.0 0.0 0.00 0.00 0.00 100 1018.5
20260508041412 10 0.0 0.0 0.00 0.00 0.00 100 1018.6
20260508040413 10 0.0 0.0 0.00 0.00 0.00 100 1018.4
20260508035411 10 0.0 0.0 0.00 0.00 0.00 100 1018.4
20260508034412 10 0.0 0.0 0.00 0.00 0.00 100 1018.4
20260508033414 10 0.0 0.0 0.00 0.00 0.00 100 1018.3
20260508032416 10 0.0 0.0 0.00 0.00 0.00 100 1018.3
20260508031418 10 0.0 0.0 0.00 0.00 0.00 100 1018.1
20260508030420 10 0.0 0.0 0.00 0.00 0.00 100 1017.9
20260508025422 10 0.0 0.0 0.00 0.00 0.00 100 1017.9
20260508024424 10 0.0 0.0 0.00 0.00 0.00 100 1017.7
20260508023426 10 0.0 0.0 0.00 0.00 0.00 100 1017.6
20260508022426 10 0.0 0.0 0.00 0.00 0.00 100 1017.5
20260508021427 10 0.0 0.0 0.00 0.00 0.00 100 1017.5
20260508020429 10 0.0 0.0 0.00 0.00 0.00 100 1017.5
20260508015431 10 0.0 0.0 0.00 0.00 0.00 100 1017.6
20260508014432 10 0.0 0.0 0.00 0.00 0.00 100 1017.8
20260508013434 10 0.0 0.0 0.00 0.00 0.00 100 1017.8
20260508012435 10 0.0 0.0 0.00 0.00 0.00 100 1017.9
20260508011437 10 0.0 0.0 0.00 0.00 0.00 100 1017.8
20260508010439 10 0.0 0.0 0.00 0.00 0.00 100 1017.7
20260508005436 10 0.0 0.0 0.00 0.00 0.00 100 1017.7
20260508004437 10 0.0 0.0 0.00 0.00 0.00 100 1017.5
20260508003438 10 0.0 0.0 0.00 0.00 0.00 100 1017.5
20260508002440 10 0.0 0.0 0.00 0.00 0.00 100 1017.4
20260508001442 11 0.0 0.0 0.00 0.00 0.00 100 1017.3
20260508000443 11 0.0 0.0 0.00 0.00 0.00 100 1017.3
20260507235445 11 0.0 0.0 0.00 0.00 0.00 100 1017.2
20260507234447 11 0.0 0.0 0.00 0.00 0.00 100 1017.2
20260507233448 11 0.0 0.0 0.00 0.00 0.00 100 1017.2
20260507232448 11 0.0 0.0 0.00 0.00 0.00 100 1017.3
20260507231450 11 0.0 0.0 0.00 0.00 0.00 100 1017.3
20260507230451 11 0.0 0.0 0.00 0.00 0.00 100 1017.2
20260507225453 11 0.0 0.0 0.00 0.00 0.00 100 1017.2
20260507224454 12 0.0 0.0 0.00 0.00 0.00 100 1017.2
20260507223456 12 0.0 0.0 0.00 0.00 0.00 100 1017.1
20260507222457 12 0.0 0.0 0.00 0.00 0.00 100 1017.1
20260507221459 12 0.0 0.0 0.00 0.00 0.00 100 1017.0
20260507220501 12 0.0 0.0 0.00 0.00 0.00 100 1017.0
20260507215457 12 0.0 0.0 0.00 0.00 0.00 100 1016.9
20260507214459 12 0.0 0.0 0.00 0.00 0.00 100 1016.5
20260507213500 12 0.0 0.0 0.00 0.00 0.00 100 1016.5
20260507212502 12 0.0 0.0 0.00 0.00 0.00 100 1016.7
20260507211503 12 0.0 0.0 0.00 0.00 0.00 100 1016.6
20260507210505 12 0.0 0.0 0.00 0.00 0.00 100 1016.6
20260507205507 12 0.0 0.0 0.00 0.00 0.00 100 1016.5
20260507204508 12 0.0 0.0 0.00 0.00 0.00 100 1016.5
20260507203510 12 0.0 0.0 0.00 0.00 0.00 100 1016.2
20260507202509 12 0.0 0.0 0.00 0.00 0.00 100 1016.0
20260507201511 12 0.0 0.0 0.00 0.00 0.00 100 1015.9
20260507200513 12 0.0 0.0 0.00 0.00 0.00 100 1015.7
20260507195514 12 0.0 0.0 0.00 0.00 0.00 100 1015.8
20260507194517 12 0.0 0.0 0.00 0.00 0.00 100 1016.3
20260507193518 12 0.0 0.0 0.00 0.00 0.00 100 1016.2
20260507192520 12 0.0 0.0 0.00 0.00 0.00 100 1015.9
20260507191521 12 0.0 0.0 0.00 0.00 0.00 100 1015.5
20260507190523 12 0.0 0.0 0.00 0.00 0.00 100 1015.2
20260507185520 12 0.0 0.0 0.00 0.00 0.00 100 1015.3
20260507184521 12 0.0 0.0 0.00 0.00 0.00 100 1015.2
20260507183522 12 0.0 0.0 0.00 0.00 0.00 100 1015.0
20260507182524 12 0.0 0.0 0.00 0.00 0.00 100 1014.8
20260507181527 12 0.0 0.0 0.00 0.00 0.00 99 1014.8
20260507180528 12 0.0 0.0 0.00 0.00 0.00 97 1014.8
20260507175530 12 0.0 0.0 0.00 0.00 0.00 97 1014.5
20260507174532 13 0.0 0.0 0.00 0.00 0.00 98 1014.3
20260507173534 13 0.0 0.0 0.00 0.00 0.00 98 1013.5
20260507172534 13 0.0 0.0 0.00 0.00 0.00 100 1013.3
20260507171535 13 0.0 0.0 0.00 0.00 0.00 100 1013.1
20260507170537 13 0.0 0.0 0.00 0.00 0.00 100 1013.1
20260507165539 13 0.0 0.0 0.00 0.00 0.00 100 1013.0
20260507164541 15 0.0 0.0 0.00 0.00 0.00 89 1012.8
20260507163543 15 0.0 0.0 0.00 0.00 0.00 82 1012.2
20260507162546 16 0.0 0.0 0.00 0.00 0.00 81 1012.1
20260507161548 16 0.0 0.0 0.00 0.00 0.00 79 1012.0
20260507160550 17 0.0 0.0 0.00 0.00 0.00 70 1011.7
20260507155552 20 0.0 0.0 0.00 0.00 0.00 55 1011.0
20260507154555 20 0.0 0.0 0.00 0.00 0.00 55 1010.8
20260507153557 20 0.0 0.0 0.00 0.00 0.00 53 1010.9
20260507152559 20 0.0 0.0 0.00 0.00 0.00 53 1011.0
20260507151601 20 0.0 0.0 0.00 0.00 0.00 52 1010.9
20260507150604 21 0.0 0.0 0.00 0.00 0.00 52 1010.8
20260507145607 22 0.0 0.0 0.00 0.00 0.00 45 1010.5
20260507144609 22 0.0 0.0 0.00 0.00 0.00 44 1010.3
20260507143612 22 0.0 0.0 0.00 0.00 0.00 43 1010.3
20260507142615 23 0.0 0.0 0.00 0.00 0.00 43 1010.2
20260507141617 23 0.0 0.0 0.00 0.00 0.00 43 1010.3
20260507140619 23 0.0 0.0 0.00 0.00 0.00 42 1010.2
20260507135622 24 0.0 0.0 0.00 0.00 0.00 39 1010.2
20260507134624 23 0.0 0.0 0.00 0.00 0.00 41 1010.4
20260507133626 23 0.0 0.0 0.00 0.00 0.00 42 1010.6
20260507132628 21 0.0 0.0 0.00 0.00 0.00 54 1010.7
20260507131630 21 0.0 0.0 0.00 0.00 0.00 57 1010.8
20260507130632 21 0.0 0.0 0.00 0.00 0.00 57 1010.9
20260507125633 21 0.0 0.0 0.00 0.00 0.00 55 1010.9
20260507124636 21 0.0 0.0 0.00 0.00 0.00 54 1011.0
20260507123639 21 0.0 0.0 0.00 0.00 0.00 54 1011.1
20260507122642 21 0.0 0.0 0.00 0.00 0.00 54 1011.0
20260507121644 23 0.0 0.0 0.00 0.00 0.00 51 1010.8
20260507120645 22 0.0 0.0 0.00 0.00 0.00 54 1011.0
20260507115647 22 0.0 0.0 0.00 0.00 0.00 54 1011.1
20260507114650 21 0.0 0.0 0.00 0.00 0.00 56 1011.3
20260507113652 20 0.0 0.0 0.00 0.00 0.00 60 1011.5
20260507112655 20 0.0 0.0 0.00 0.00 0.00 64 1011.6
20260507111657 20 0.0 0.0 0.00 0.00 0.00 59 1011.4
20260507110700 21 0.0 0.0 0.00 0.00 0.00 54 1011.2
20260507105702 20 0.0 0.0 0.00 0.00 0.00 56 1011.2
20260507104705 21 0.0 0.0 0.00 0.00 0.00 58 1011.2
20260507102709 21 0.0 0.0 0.00 0.00 0.00 58 1011.1
20260507101711 20 0.0 0.0 0.00 0.00 0.00 60 1011.3
20260507100713 21 0.0 0.0 0.00 0.00 0.00 59 1011.3
20260507095715 20 0.0 0.0 0.00 0.00 0.00 60 1011.3
20260507094717 20 0.0 0.0 0.00 0.00 0.00 60 1011.1
20260507093720 21 0.0 0.0 0.00 0.00 0.00 60 1011.1
20260507092722 21 0.0 0.0 0.00 0.00 0.00 59 1011.1
20260507091724 20 0.0 0.0 0.00 0.00 0.00 61 1011.0
20260507090727 20 0.0 0.0 0.00 0.00 0.00 64 1010.9
20260507085730 20 0.0 0.0 0.00 0.00 0.00 62 1010.7
20260507084732 21 0.0 0.0 0.00 0.00 0.00 62 1010.6
20260507083734 18 0.0 0.0 0.00 0.00 0.00 68 1010.9
20260507082737 18 0.0 0.0 0.00 0.00 0.00 68 1010.7
20260507081738 18 0.0 0.0 0.00 0.00 0.00 70 1010.6
20260507080740 18 0.0 0.0 0.00 0.00 0.00 70 1010.6
20260507075743 18 0.0 0.0 0.00 0.00 0.00 69 1010.5
20260507074745 20 0.0 0.0 0.00 0.00 0.00 66 1010.2
20260507073747 18 0.0 0.0 0.00 0.00 0.00 70 1010.2
20260507072749 18 0.0 0.0 0.00 0.00 0.00 72 1010.0
20260507071752 18 0.0 0.0 0.00 0.00 0.00 72 1010.1
20260507070754 17 0.0 0.0 0.00 0.00 0.00 73 1010.1
20260507065756 18 0.0 0.0 0.00 0.00 0.00 70 1009.8
20260507064758 17 0.0 0.0 0.00 0.00 0.00 72 1009.8
20260507063759 17 0.0 0.0 0.00 0.00 0.00 73 1009.8
20260507062801 17 0.0 0.0 0.00 0.00 0.00 73 1009.8
20260507061803 17 0.0 0.0 0.00 0.00 0.00 73 1009.7
20260507060805 16 0.0 0.0 0.00 0.00 0.00 75 1009.8
20260507055807 16 0.0 0.0 0.00 0.00 0.00 77 1009.7
20260507054810 15 0.0 0.0 0.00 0.00 0.00 79 1009.7
20260507053812 15 0.0 0.0 0.00 0.00 0.00 80 1009.6
20260507052815 15 0.0 0.0 0.00 0.00 0.00 80 1009.6
20260507051818 15 0.0 0.0 0.00 0.00 0.00 79 1009.5
20260507050821 15 0.0 0.0 0.00 0.00 0.00 79 1009.4
20260507045824 15 0.0 0.0 0.00 0.00 0.00 79 1009.2